Date,TemperatureHighF,TemperatureAvgF,TemperatureLowF,DewpointHighF,DewpointAvgF,DewpointLowF,HumidityHigh,HumidityAvg,HumidityLow,PressureMaxIn,PressureMinIn,WindSpeedMaxMPH,WindSpeedAvgMPH,GustSpeedMaxMPH,PrecipitationSumIn
2013-2-1,0.8,-6.5,-15.8,-3.5,-12.6,-20.1,86,74,58,30.37,30.15,10,2,10,0.00
2013-2-2,11.3,4.0,-3.8,5.0,-1.2,-7.0,88,79,61,30.25,30.03,6,0,6,0.00
2013-2-3,13.0,9.0,2.6,5.2,2.9,-1.4,88,76,64,30.11,30.02,11,2,11,0.00
2013-2-4,12.6,7.8,-1.4,9.3,-0.6,-7.5,87,68,57,30.12,29.77,15,2,15,0.00
2013-2-5,26.1,19.6,7.3,21.9,13.8,3.7,92,79,60,30.09,29.67,13,2,13,0.00
2013-2-6,22.9,14.8,5.6,20.4,12.1,2.1,92,89,85,30.13,29.99,13,2,13,0.00
2013-2-7,27.7,24.6,22.5,22.9,21.8,20.3,95,89,80,30.28,30.05,13,4,13,0.00
2013-2-8,26.0,19.8,11.4,20.3,14.0,9.3,94,78,65,30.42,30.26,13,2,13,0.00
2013-2-9,30.9,27.2,16.7,28.5,24.6,11.8,96,90,82,30.26,29.96,17,5,17,0.00
2013-2-10,31.9,28.9,26.0,31.2,27.7,24.6,98,95,90,29.96,29.30,20,6,20,0.00
2013-2-11,31.1,25.3,16.4,30.6,21.4,12.4,98,85,74,30.03,29.32,15,4,15,0.00
2013-2-12,33.1,21.9,9.2,23.5,17.2,7.1,93,82,66,30.03,29.79,12,3,12,0.00
2013-2-13,38.5,28.8,20.3,31.2,24.6,18.0,97,85,66,29.80,29.59,8,1,9,0.08
2013-2-14,30.9,25.2,14.4,30.1,17.2,3.5,97,74,41,30.17,29.62,12,1,12,0.00
2013-2-15,17.6,11.3,3.7,4.7,2.4,-1.9,82,67,53,30.33,30.16,11,2,11,0.00
2013-2-16,19.6,9.3,1.4,5.9,2.0,-1.9,87,73,53,30.28,30.16,3,1,5,0.00
2013-2-17,28.1,18.0,2.0,20.7,11.2,-1.6,85,75,64,30.17,29.67,17,5,17,0.00
2013-2-18,32.0,23.5,8.8,29.2,18.5,2.8,90,81,76,29.79,29.52,18,5,18,0.00
2013-2-19,9.8,4.7,0.3,2.7,-3.5,-7.4,81,68,57,30.40,29.79,19,4,19,0.00
2013-2-20,15.8,5.8,-5.1,4.3,-1.7,-8.9,83,71,59,30.53,30.39,7,1,7,0.00
2013-2-21,23.7,13.5,-0.8,18.0,7.0,-3.8,89,76,58,30.54,30.16,17,3,17,0.00
2013-2-22,27.4,23.0,19.2,24.8,20.7,17.2,95,91,85,30.16,29.86,16,3,16,0.00
2013-2-23,35.3,26.6,18.1,26.0,22.4,16.5,95,85,65,29.95,29.84,7,2,7,0.07
2013-2-24,37.2,23.9,11.3,24.7,18.8,9.2,93,81,59,30.12,29.95,6,1,6,0.01
2013-2-25,37.2,26.4,17.4,24.5,21.1,15.1,95,81,59,30.13,30.06,4,0,4,0.01
2013-2-26,38.9,25.6,12.3,29.1,21.4,10.4,96,85,65,30.09,29.91,17,2,17,0.00
2013-2-27,37.9,31.0,28.1,27.6,25.6,23.2,88,80,63,30.04,29.89,19,4,19,0.00
2013-2-28,30.9,27.6,21.9,24.1,21.1,16.2,87,76,70,30.26,30.03,11,4,13,0.00